Year,Month,Day,Hour,Minute,Value (Times are PST for temperature in C)
2018,12,07,00,00,3.20
2018,12,07,00,01,3.20
2018,12,07,00,02,3.30
2018,12,07,00,03,3.30
2018,12,07,00,04,3.30
2018,12,07,00,05,3.30
2018,12,07,00,06,3.30
2018,12,07,00,07,3.30
2018,12,07,00,08,3.30
2018,12,07,00,09,3.30
2018,12,07,00,10,3.30
2018,12,07,00,11,3.30
2018,12,07,00,12,3.30
2018,12,07,00,13,3.30
2018,12,07,00,14,3.30
2018,12,07,00,15,3.30
2018,12,07,00,16,3.40
2018,12,07,00,17,3.30
2018,12,07,00,18,3.30
2018,12,07,00,19,3.30
2018,12,07,00,20,3.30
2018,12,07,00,21,3.30
2018,12,07,00,22,3.30
2018,12,07,00,23,3.30
2018,12,07,00,24,3.20
2018,12,07,00,25,3.20
2018,12,07,00,26,3.20
2018,12,07,00,27,3.10
2018,12,07,00,28,3.10
2018,12,07,00,29,3.00
2018,12,07,00,30,3.00
2018,12,07,00,31,2.90
2018,12,07,00,32,2.90
2018,12,07,00,33,2.80
2018,12,07,00,34,2.80
2018,12,07,00,35,2.80
2018,12,07,00,36,2.80
2018,12,07,00,37,2.80
2018,12,07,00,38,2.70
2018,12,07,00,39,2.70
2018,12,07,00,40,2.70
2018,12,07,00,41,2.70
2018,12,07,00,42,2.70
2018,12,07,00,43,2.70
2018,12,07,00,44,2.60
2018,12,07,00,45,2.60
2018,12,07,00,46,2.60
2018,12,07,00,47,2.60
2018,12,07,00,48,2.60
2018,12,07,00,49,2.60
2018,12,07,00,50,2.60
2018,12,07,00,51,2.60
2018,12,07,00,52,2.60
2018,12,07,00,53,2.50
2018,12,07,00,54,2.50
2018,12,07,00,55,2.50
2018,12,07,00,56,2.50
2018,12,07,00,57,2.50
2018,12,07,00,58,2.50
2018,12,07,00,59,2.50
2018,12,07,01,00,2.50
2018,12,07,01,01,2.60
2018,12,07,01,02,2.60
2018,12,07,01,03,2.60
2018,12,07,01,04,2.60
2018,12,07,01,05,2.60
2018,12,07,01,06,2.60
2018,12,07,01,07,2.60
2018,12,07,01,08,2.60
2018,12,07,01,09,2.60
2018,12,07,01,10,2.60
2018,12,07,01,11,2.60
2018,12,07,01,12,2.60
2018,12,07,01,13,2.60
2018,12,07,01,14,2.60
2018,12,07,01,15,2.60
2018,12,07,01,16,2.60
2018,12,07,01,17,2.60
2018,12,07,01,18,2.60
2018,12,07,01,19,2.60
2018,12,07,01,20,2.60
2018,12,07,01,21,2.60
2018,12,07,01,22,2.60
2018,12,07,01,23,2.60
2018,12,07,01,24,2.50
2018,12,07,01,25,2.60
2018,12,07,01,26,2.60
2018,12,07,01,27,2.60
2018,12,07,01,28,2.60
2018,12,07,01,29,2.60
2018,12,07,01,30,2.60
2018,12,07,01,31,2.60
2018,12,07,01,32,2.60
2018,12,07,01,33,2.70
2018,12,07,01,34,2.70
2018,12,07,01,35,2.70
2018,12,07,01,36,2.70
2018,12,07,01,37,2.70
2018,12,07,01,38,2.70
2018,12,07,01,39,2.70
2018,12,07,01,40,2.70
2018,12,07,01,41,2.70
2018,12,07,01,42,2.80
2018,12,07,01,43,2.80
2018,12,07,01,44,2.80
2018,12,07,01,45,2.80
2018,12,07,01,46,2.80
2018,12,07,01,47,2.80
2018,12,07,01,48,2.80
2018,12,07,01,49,2.80
2018,12,07,01,50,2.90
2018,12,07,01,51,2.90
2018,12,07,01,52,2.90
2018,12,07,01,53,2.90
2018,12,07,01,54,2.90
2018,12,07,01,55,2.90
2018,12,07,01,56,2.90
2018,12,07,01,57,2.90
2018,12,07,01,58,3.00
2018,12,07,01,59,3.00
2018,12,07,02,00,3.00
2018,12,07,02,01,3.00
2018,12,07,02,02,3.00
2018,12,07,02,03,3.00
2018,12,07,02,04,3.10
2018,12,07,02,05,3.10
2018,12,07,02,06,3.10
2018,12,07,02,07,3.00
2018,12,07,02,08,3.00
2018,12,07,02,09,3.00
2018,12,07,02,10,3.00
2018,12,07,02,11,3.00
2018,12,07,02,12,3.00
2018,12,07,02,13,3.00
2018,12,07,02,14,3.00
2018,12,07,02,15,3.00
2018,12,07,02,16,3.00
2018,12,07,02,17,3.00
2018,12,07,02,18,3.00
2018,12,07,02,19,3.00
2018,12,07,02,20,2.90
2018,12,07,02,21,2.90
2018,12,07,02,22,2.90
2018,12,07,02,23,2.90
2018,12,07,02,24,2.90
2018,12,07,02,25,2.90
2018,12,07,02,26,2.80
2018,12,07,02,27,2.80
2018,12,07,02,28,2.80
2018,12,07,02,29,2.80
2018,12,07,02,30,2.80
2018,12,07,02,31,2.80
2018,12,07,02,32,2.80
2018,12,07,02,33,2.80
2018,12,07,02,34,2.80
2018,12,07,02,35,2.80
2018,12,07,02,36,2.80
2018,12,07,02,37,2.80
2018,12,07,02,38,2.80
2018,12,07,02,39,2.80
2018,12,07,02,40,2.80
2018,12,07,02,41,2.80
2018,12,07,02,42,2.80
2018,12,07,02,43,2.80
2018,12,07,02,44,2.80
2018,12,07,02,45,2.80
2018,12,07,02,46,2.80
2018,12,07,02,47,2.80
2018,12,07,02,48,2.80
2018,12,07,02,49,2.90
2018,12,07,02,50,2.90
2018,12,07,02,51,2.90
2018,12,07,02,52,2.90
2018,12,07,02,53,2.90
2018,12,07,02,54,2.90
2018,12,07,02,55,2.90
2018,12,07,02,56,3.00
2018,12,07,02,57,3.00
2018,12,07,02,58,3.00
2018,12,07,02,59,3.10
2018,12,07,03,00,3.10
2018,12,07,03,01,3.20
2018,12,07,03,02,3.20
2018,12,07,03,03,3.20
2018,12,07,03,04,3.20
2018,12,07,03,05,3.20
2018,12,07,03,06,3.30
2018,12,07,03,07,3.30
2018,12,07,03,08,3.30
2018,12,07,03,09,3.40
2018,12,07,03,10,3.50
2018,12,07,03,11,3.60
2018,12,07,03,12,3.60
2018,12,07,03,13,3.70
2018,12,07,03,14,3.70
2018,12,07,03,15,3.70
2018,12,07,03,16,3.70
2018,12,07,03,17,3.70
2018,12,07,03,18,3.80
2018,12,07,03,19,3.80
2018,12,07,03,20,3.80
2018,12,07,03,21,3.80
2018,12,07,03,22,3.80
2018,12,07,03,23,3.80
2018,12,07,03,24,3.80
2018,12,07,03,25,3.80
2018,12,07,03,26,3.80
2018,12,07,03,27,3.90
2018,12,07,03,28,3.90
2018,12,07,03,29,3.90
2018,12,07,03,30,3.90
2018,12,07,03,31,3.90
2018,12,07,03,32,3.90
2018,12,07,03,33,3.90
2018,12,07,03,34,3.90
2018,12,07,03,35,3.90
2018,12,07,03,36,3.90
2018,12,07,03,37,3.90
2018,12,07,03,38,3.90
2018,12,07,03,39,3.80
2018,12,07,03,40,3.70
2018,12,07,03,41,3.60
2018,12,07,03,42,3.60
2018,12,07,03,43,3.50
2018,12,07,03,44,3.50
2018,12,07,03,45,3.40
2018,12,07,03,46,3.40
2018,12,07,03,47,3.40
2018,12,07,03,48,3.30
2018,12,07,03,49,3.30
2018,12,07,03,50,3.30
2018,12,07,03,51,3.20
2018,12,07,03,52,3.20
2018,12,07,03,53,3.20
2018,12,07,03,54,3.20
2018,12,07,03,55,3.10
2018,12,07,03,56,3.10
2018,12,07,03,57,3.10
2018,12,07,03,58,3.10
2018,12,07,03,59,3.10
2018,12,07,04,00,3.10
2018,12,07,04,01,3.00
2018,12,07,04,02,3.00
2018,12,07,04,03,3.00
2018,12,07,04,04,3.00
2018,12,07,04,05,2.90
2018,12,07,04,06,2.90
2018,12,07,04,07,2.90
2018,12,07,04,08,2.90
2018,12,07,04,09,2.90
2018,12,07,04,10,2.80
2018,12,07,04,11,2.80
2018,12,07,04,12,2.80
2018,12,07,04,13,2.80
2018,12,07,04,14,2.80
2018,12,07,04,15,2.70
2018,12,07,04,16,2.70
2018,12,07,04,17,2.70
2018,12,07,04,18,2.70
2018,12,07,04,19,2.60
2018,12,07,04,20,2.60
2018,12,07,04,21,2.60
2018,12,07,04,22,2.50
2018,12,07,04,23,2.50
2018,12,07,04,24,2.50
2018,12,07,04,25,2.40
2018,12,07,04,26,2.40
2018,12,07,04,27,2.40
2018,12,07,04,28,2.40
2018,12,07,04,29,2.40
2018,12,07,04,30,2.40
2018,12,07,04,31,2.40
2018,12,07,04,32,2.30
2018,12,07,04,33,2.40
2018,12,07,04,34,2.40
2018,12,07,04,35,2.40
2018,12,07,04,36,2.40
2018,12,07,04,37,2.40
2018,12,07,04,38,2.40
2018,12,07,04,39,2.50
2018,12,07,04,40,2.50
2018,12,07,04,41,2.60
2018,12,07,04,42,2.60
2018,12,07,04,43,2.70
2018,12,07,04,44,2.70
2018,12,07,04,45,2.70
2018,12,07,04,46,2.70
2018,12,07,04,47,2.80
2018,12,07,04,48,2.80
2018,12,07,04,49,2.80
2018,12,07,04,50,2.80
2018,12,07,04,51,2.90
2018,12,07,04,52,3.00
2018,12,07,04,53,3.00
2018,12,07,04,54,3.10
2018,12,07,04,55,3.10
2018,12,07,04,56,3.10
2018,12,07,04,57,3.10
2018,12,07,04,58,3.10
2018,12,07,04,59,3.10
2018,12,07,05,00,3.10
2018,12,07,05,01,3.00
2018,12,07,05,02,3.00
2018,12,07,05,03,3.00
2018,12,07,05,04,3.00
2018,12,07,05,05,3.00
2018,12,07,05,06,3.10
2018,12,07,05,07,3.10
2018,12,07,05,08,3.10
2018,12,07,05,09,3.10
2018,12,07,05,10,3.10
2018,12,07,05,11,3.10
2018,12,07,05,12,3.10
2018,12,07,05,13,3.10
2018,12,07,05,14,3.10
2018,12,07,05,15,3.10
2018,12,07,05,16,3.10
2018,12,07,05,17,3.10
2018,12,07,05,18,3.10
2018,12,07,05,19,3.10
2018,12,07,05,20,3.10
2018,12,07,05,21,3.10
2018,12,07,05,22,3.10
2018,12,07,05,23,3.10
2018,12,07,05,24,3.10
2018,12,07,05,25,3.10
2018,12,07,05,26,3.10
2018,12,07,05,27,3.10
2018,12,07,05,28,3.10
2018,12,07,05,29,3.10
2018,12,07,05,30,3.10
2018,12,07,05,31,3.20
2018,12,07,05,32,3.20
2018,12,07,05,33,3.30
2018,12,07,05,34,3.40
2018,12,07,05,35,3.40
2018,12,07,05,36,3.50
2018,12,07,05,37,3.60
2018,12,07,05,38,3.60
2018,12,07,05,39,3.70
2018,12,07,05,40,3.70
2018,12,07,05,41,3.70
2018,12,07,05,42,3.70
2018,12,07,05,43,3.80
2018,12,07,05,44,3.80
2018,12,07,05,45,3.80
2018,12,07,05,46,3.80
2018,12,07,05,47,3.90
2018,12,07,05,48,3.90
2018,12,07,05,49,3.90
2018,12,07,05,50,3.90
2018,12,07,05,51,3.90
2018,12,07,05,52,3.90
2018,12,07,05,53,4.00
2018,12,07,05,54,4.00
2018,12,07,05,55,4.00
2018,12,07,05,56,4.00
2018,12,07,05,57,4.10
2018,12,07,05,58,4.10
2018,12,07,05,59,4.10
2018,12,07,06,00,4.20
2018,12,07,06,01,4.20
2018,12,07,06,02,4.10
2018,12,07,06,03,4.10
2018,12,07,06,04,4.10
2018,12,07,06,05,4.00
2018,12,07,06,06,3.90
2018,12,07,06,07,3.90
2018,12,07,06,08,3.80
2018,12,07,06,09,3.70
2018,12,07,06,10,3.60
2018,12,07,06,11,3.60
2018,12,07,06,12,3.50
2018,12,07,06,13,3.50
2018,12,07,06,14,3.40
2018,12,07,06,15,3.40
2018,12,07,06,16,3.40
2018,12,07,06,17,3.40
2018,12,07,06,18,3.30
2018,12,07,06,19,3.30
2018,12,07,06,20,3.30
2018,12,07,06,21,3.30
2018,12,07,06,22,3.30
2018,12,07,06,23,3.30
2018,12,07,06,24,3.30
2018,12,07,06,25,3.30
2018,12,07,06,26,3.20
2018,12,07,06,27,3.20
2018,12,07,06,28,3.20
2018,12,07,06,29,3.10
2018,12,07,06,30,3.10
2018,12,07,06,31,3.10
2018,12,07,06,32,3.10
2018,12,07,06,33,3.10
2018,12,07,06,34,3.10
2018,12,07,06,35,3.10
2018,12,07,06,36,3.20
2018,12,07,06,37,3.20
2018,12,07,06,38,3.20
2018,12,07,06,39,3.20
2018,12,07,06,40,3.20
2018,12,07,06,41,3.20
2018,12,07,06,42,3.20
2018,12,07,06,43,3.10
2018,12,07,06,44,3.10
2018,12,07,06,45,3.10
2018,12,07,06,46,3.10
2018,12,07,06,47,3.10
2018,12,07,06,48,3.10
2018,12,07,06,49,3.10
2018,12,07,06,50,3.10
2018,12,07,06,51,3.10
2018,12,07,06,52,3.10
2018,12,07,06,53,3.10
2018,12,07,06,54,3.20
2018,12,07,06,55,3.20
2018,12,07,06,56,3.20
2018,12,07,06,57,3.20
2018,12,07,06,58,3.20
2018,12,07,06,59,3.20
2018,12,07,07,00,3.20
2018,12,07,07,01,3.20
2018,12,07,07,02,3.20
2018,12,07,07,03,3.20
2018,12,07,07,04,3.20
2018,12,07,07,05,3.20
2018,12,07,07,06,3.30
2018,12,07,07,07,3.30
2018,12,07,07,08,3.30
2018,12,07,07,09,3.30
2018,12,07,07,10,3.30
2018,12,07,07,11,3.40
2018,12,07,07,12,3.40
2018,12,07,07,13,3.40
2018,12,07,07,14,3.40
2018,12,07,07,15,3.40
2018,12,07,07,16,3.50
2018,12,07,07,17,3.50
2018,12,07,07,18,3.50
2018,12,07,07,19,3.60
2018,12,07,07,20,3.60
2018,12,07,07,21,3.60
2018,12,07,07,22,3.60
2018,12,07,07,23,3.70
2018,12,07,07,24,3.70
2018,12,07,07,25,3.70
2018,12,07,07,26,3.70
2018,12,07,07,27,3.70
2018,12,07,07,28,3.70
2018,12,07,07,29,3.80
2018,12,07,07,30,3.80
2018,12,07,07,31,3.80
2018,12,07,07,32,3.90
2018,12,07,07,33,3.90
2018,12,07,07,34,3.90
2018,12,07,07,35,3.90
2018,12,07,07,36,4.00
2018,12,07,07,37,4.00
2018,12,07,07,38,4.00
2018,12,07,07,39,4.10
2018,12,07,07,40,4.10
2018,12,07,07,41,4.10
2018,12,07,07,42,4.10
2018,12,07,07,43,4.20
2018,12,07,07,44,4.20
2018,12,07,07,45,4.20
2018,12,07,07,46,4.20
2018,12,07,07,47,4.20
2018,12,07,07,48,4.20
2018,12,07,07,49,4.20
2018,12,07,07,50,4.30
2018,12,07,07,51,4.30
2018,12,07,07,52,4.30
2018,12,07,07,53,4.30
2018,12,07,07,54,4.30
2018,12,07,07,55,4.30
2018,12,07,07,56,4.30
2018,12,07,07,57,4.30
2018,12,07,07,58,4.30
2018,12,07,07,59,4.30
2018,12,07,08,00,4.30
2018,12,07,08,01,4.30
2018,12,07,08,02,4.30
2018,12,07,08,03,4.30
2018,12,07,08,04,4.40
2018,12,07,08,05,4.40
2018,12,07,08,06,4.40
2018,12,07,08,07,4.40
2018,12,07,08,08,4.40
2018,12,07,08,09,4.40
2018,12,07,08,10,4.40
2018,12,07,08,11,4.50
2018,12,07,08,12,4.50
2018,12,07,08,13,4.40
2018,12,07,08,14,4.40
2018,12,07,08,15,4.40
2018,12,07,08,16,4.40
2018,12,07,08,17,4.40
2018,12,07,08,18,4.50
2018,12,07,08,19,4.40
2018,12,07,08,20,4.40
2018,12,07,08,21,4.40
2018,12,07,08,22,4.40
2018,12,07,08,23,4.40
2018,12,07,08,24,4.40
2018,12,07,08,25,4.40
2018,12,07,08,26,4.40
2018,12,07,08,27,4.40
2018,12,07,08,28,4.40
2018,12,07,08,29,4.40
2018,12,07,08,30,4.40
2018,12,07,08,31,4.40
2018,12,07,08,32,4.50
2018,12,07,08,33,4.50
2018,12,07,08,34,4.50
2018,12,07,08,35,4.60
2018,12,07,08,36,4.70
2018,12,07,08,37,4.70
2018,12,07,08,38,4.80
2018,12,07,08,39,4.90
2018,12,07,08,40,4.90
2018,12,07,08,41,4.90
2018,12,07,08,42,5.00
2018,12,07,08,43,5.00
2018,12,07,08,44,5.10
2018,12,07,08,45,5.10
2018,12,07,08,46,5.20
2018,12,07,08,47,5.20
2018,12,07,08,48,5.20
2018,12,07,08,49,5.20
2018,12,07,08,50,5.20
2018,12,07,08,51,5.30
2018,12,07,08,52,5.30
2018,12,07,08,53,5.30
2018,12,07,08,54,5.30
2018,12,07,08,55,5.30
2018,12,07,08,56,5.30
2018,12,07,08,57,5.40
2018,12,07,08,58,5.40
2018,12,07,08,59,5.50
2018,12,07,09,00,5.50
2018,12,07,09,01,5.60
2018,12,07,09,02,5.60
2018,12,07,09,03,5.60
2018,12,07,09,04,5.70
2018,12,07,09,05,5.70
2018,12,07,09,06,5.70
2018,12,07,09,07,5.70
2018,12,07,09,08,5.80
2018,12,07,09,09,5.80
2018,12,07,09,10,5.80
2018,12,07,09,11,5.90
2018,12,07,09,12,5.90
2018,12,07,09,13,5.80
2018,12,07,09,14,5.80
2018,12,07,09,15,5.80
2018,12,07,09,16,5.80
2018,12,07,09,17,5.80
2018,12,07,09,18,5.80
2018,12,07,09,19,5.80
2018,12,07,09,20,5.80
2018,12,07,09,21,5.80
2018,12,07,09,22,5.80
2018,12,07,09,23,5.80
2018,12,07,09,24,5.80
2018,12,07,09,25,5.80
2018,12,07,09,26,5.80
2018,12,07,09,27,5.70
2018,12,07,09,28,5.70
2018,12,07,09,29,5.70
2018,12,07,09,30,5.60
2018,12,07,09,31,5.50
2018,12,07,09,32,5.50
2018,12,07,09,33,5.40
2018,12,07,09,34,5.30
2018,12,07,09,35,5.30
2018,12,07,09,36,5.30
2018,12,07,09,37,5.30
2018,12,07,09,38,5.30
2018,12,07,09,39,5.30
2018,12,07,09,40,5.30
2018,12,07,09,41,5.30
2018,12,07,09,42,5.30
2018,12,07,09,43,5.30
2018,12,07,09,44,5.40
2018,12,07,09,45,5.40
2018,12,07,09,46,5.40
2018,12,07,09,47,5.40
2018,12,07,09,48,5.40
2018,12,07,09,49,5.40
2018,12,07,09,50,5.40
2018,12,07,09,51,5.40
2018,12,07,09,52,5.40
2018,12,07,09,53,5.40
2018,12,07,09,54,5.40
2018,12,07,09,55,5.40
2018,12,07,09,56,5.30
2018,12,07,09,57,5.30
2018,12,07,09,58,5.30
2018,12,07,09,59,5.30
2018,12,07,10,00,5.30
2018,12,07,10,01,5.30
2018,12,07,10,02,5.30
2018,12,07,10,03,5.40
2018,12,07,10,04,5.40
2018,12,07,10,05,5.40
2018,12,07,10,06,5.50
2018,12,07,10,07,5.50
2018,12,07,10,08,5.60
2018,12,07,10,09,5.60
2018,12,07,10,10,5.60
2018,12,07,10,11,5.70
2018,12,07,10,12,5.70
2018,12,07,10,13,5.70
2018,12,07,10,14,5.80
2018,12,07,10,15,5.80
2018,12,07,10,16,5.80
2018,12,07,10,17,5.80
2018,12,07,10,18,5.80
2018,12,07,10,19,5.80
2018,12,07,10,20,5.80
2018,12,07,10,21,5.80
2018,12,07,10,22,5.80
2018,12,07,10,23,5.80
2018,12,07,10,24,5.80
2018,12,07,10,25,5.80
2018,12,07,10,26,5.80
2018,12,07,10,27,5.80
2018,12,07,10,28,5.80
2018,12,07,10,29,5.80
2018,12,07,10,30,5.80
2018,12,07,10,31,5.80
2018,12,07,10,32,5.80
2018,12,07,10,33,5.80
2018,12,07,10,34,5.80
2018,12,07,10,35,5.80
2018,12,07,10,36,5.90
2018,12,07,10,37,5.90
2018,12,07,10,38,5.90
2018,12,07,10,39,5.90
2018,12,07,10,40,5.90
2018,12,07,10,41,5.90
2018,12,07,10,42,5.90
2018,12,07,10,43,5.90
2018,12,07,10,44,5.90
2018,12,07,10,45,5.90
2018,12,07,10,46,5.90
2018,12,07,10,47,5.90
2018,12,07,10,48,5.90
2018,12,07,10,49,5.90
2018,12,07,10,50,5.90
2018,12,07,10,51,6.00
2018,12,07,10,52,6.00
2018,12,07,10,53,6.00
2018,12,07,10,54,6.00
2018,12,07,10,55,6.10
2018,12,07,10,56,6.10
2018,12,07,10,57,6.10
2018,12,07,10,58,6.20
2018,12,07,10,59,6.20
2018,12,07,11,00,6.20
2018,12,07,11,01,6.20
2018,12,07,11,02,6.30
2018,12,07,11,03,6.30
2018,12,07,11,04,6.30
2018,12,07,11,05,6.30
2018,12,07,11,06,6.30
2018,12,07,11,07,6.30
2018,12,07,11,08,6.20
2018,12,07,11,09,6.20
2018,12,07,11,10,6.20
2018,12,07,11,11,6.20
2018,12,07,11,12,6.20
2018,12,07,11,13,6.10
2018,12,07,11,14,6.10
2018,12,07,11,15,6.00
2018,12,07,11,16,6.00
2018,12,07,11,17,5.90
2018,12,07,11,18,5.90
2018,12,07,11,19,5.80
2018,12,07,11,20,5.80
2018,12,07,11,21,5.80
2018,12,07,11,22,5.80
2018,12,07,11,23,5.80
2018,12,07,11,24,5.80
2018,12,07,11,25,5.80
2018,12,07,11,26,5.80
2018,12,07,11,27,5.80
2018,12,07,11,28,5.80
2018,12,07,11,29,5.80
2018,12,07,11,30,5.80
2018,12,07,11,31,5.90
2018,12,07,11,32,5.90
2018,12,07,11,33,5.90
2018,12,07,11,34,5.90
2018,12,07,11,35,6.00
2018,12,07,11,36,6.00
2018,12,07,11,37,6.00
2018,12,07,11,38,6.10
2018,12,07,11,39,6.10
2018,12,07,11,40,6.10
2018,12,07,11,41,6.10
2018,12,07,11,42,6.20
2018,12,07,11,43,6.20
2018,12,07,11,44,6.20
2018,12,07,11,45,6.20
2018,12,07,11,46,6.20
2018,12,07,11,47,6.30
2018,12,07,11,48,6.30
2018,12,07,11,49,6.30
2018,12,07,11,50,6.30
2018,12,07,11,51,6.30
2018,12,07,11,52,6.30
2018,12,07,11,53,6.30
2018,12,07,11,54,6.40
2018,12,07,11,55,6.40
2018,12,07,11,56,6.40
2018,12,07,11,57,6.50
2018,12,07,11,58,6.50
2018,12,07,11,59,6.60
2018,12,07,12,00,6.60
2018,12,07,12,01,6.60
2018,12,07,12,02,6.70
2018,12,07,12,03,6.70
2018,12,07,12,04,6.70
2018,12,07,12,05,6.80
2018,12,07,12,06,6.80
2018,12,07,12,07,6.80
2018,12,07,12,08,6.80
2018,12,07,12,09,6.70
2018,12,07,12,10,6.70
2018,12,07,12,11,6.70
2018,12,07,12,12,6.70
2018,12,07,12,13,6.70
2018,12,07,12,14,6.70
2018,12,07,12,15,6.70
2018,12,07,12,16,6.70
2018,12,07,12,17,6.70
2018,12,07,12,18,6.70
2018,12,07,12,19,6.70
2018,12,07,12,20,6.60
2018,12,07,12,21,6.60
2018,12,07,12,22,6.60
2018,12,07,12,23,6.50
2018,12,07,12,24,6.50
2018,12,07,12,25,6.40
2018,12,07,12,26,6.40
2018,12,07,12,27,6.40
2018,12,07,12,28,6.40
2018,12,07,12,29,6.40
2018,12,07,12,30,6.30
2018,12,07,12,31,6.30
2018,12,07,12,32,6.30
2018,12,07,12,33,6.30
2018,12,07,12,34,6.30
2018,12,07,12,35,6.30
2018,12,07,12,36,6.30
2018,12,07,12,37,6.30
2018,12,07,12,38,6.30
2018,12,07,12,39,6.20
2018,12,07,12,40,6.20
2018,12,07,12,41,6.20
2018,12,07,12,42,6.20
2018,12,07,12,43,6.20
2018,12,07,12,44,6.20
2018,12,07,12,45,6.20
2018,12,07,12,46,6.20
2018,12,07,12,47,6.20
2018,12,07,12,48,6.20
2018,12,07,12,49,6.20
2018,12,07,12,50,6.20
2018,12,07,12,51,6.20
2018,12,07,12,52,6.30
2018,12,07,12,53,6.30
2018,12,07,12,54,6.30
2018,12,07,12,55,6.30
2018,12,07,12,56,6.40
2018,12,07,12,57,6.40
2018,12,07,12,58,6.40
2018,12,07,12,59,6.50
2018,12,07,13,00,6.50
2018,12,07,13,01,6.50
2018,12,07,13,02,6.50
2018,12,07,13,03,6.50
2018,12,07,13,04,6.50
2018,12,07,13,05,6.50
2018,12,07,13,06,6.50
2018,12,07,13,07,6.60
2018,12,07,13,08,6.60
2018,12,07,13,09,6.60
2018,12,07,13,10,6.60
2018,12,07,13,11,6.60
2018,12,07,13,12,6.60
2018,12,07,13,13,6.60
2018,12,07,13,14,6.70
2018,12,07,13,15,6.70
2018,12,07,13,16,6.70
2018,12,07,13,17,6.80
2018,12,07,13,18,6.80
2018,12,07,13,19,6.80
2018,12,07,13,20,6.80
2018,12,07,13,21,6.80
2018,12,07,13,22,6.80
2018,12,07,13,23,6.90
2018,12,07,13,24,6.90
2018,12,07,13,25,6.90
2018,12,07,13,26,6.90
2018,12,07,13,27,6.90
2018,12,07,13,28,6.90
2018,12,07,13,29,6.90
2018,12,07,13,30,6.90
2018,12,07,13,31,6.90
2018,12,07,13,32,6.90
2018,12,07,13,33,6.90
2018,12,07,13,34,6.90
2018,12,07,13,35,6.90
2018,12,07,13,36,6.90
2018,12,07,13,37,6.90
2018,12,07,13,38,6.80
2018,12,07,13,39,6.80
2018,12,07,13,40,6.80
2018,12,07,13,41,6.80
2018,12,07,13,42,6.70
2018,12,07,13,43,6.70
2018,12,07,13,44,6.70
2018,12,07,13,45,6.70
2018,12,07,13,46,6.70
2018,12,07,13,47,6.70
2018,12,07,13,48,6.70
2018,12,07,13,49,6.70
2018,12,07,13,50,6.70
2018,12,07,13,51,6.70
2018,12,07,13,52,6.70
2018,12,07,13,53,6.70
2018,12,07,13,54,6.70
2018,12,07,13,55,6.70
2018,12,07,13,56,6.70
2018,12,07,13,57,6.70
2018,12,07,13,58,6.70
2018,12,07,13,59,6.60
2018,12,07,14,00,6.60
2018,12,07,14,01,6.60
2018,12,07,14,02,6.60
2018,12,07,14,03,6.60
2018,12,07,14,04,6.50
2018,12,07,14,05,6.50
2018,12,07,14,06,6.50
2018,12,07,14,07,6.50
2018,12,07,14,08,6.50
2018,12,07,14,09,6.50
2018,12,07,14,10,6.50
2018,12,07,14,11,6.50
2018,12,07,14,12,6.50
2018,12,07,14,13,6.50
2018,12,07,14,14,6.50
2018,12,07,14,15,6.50
2018,12,07,14,16,6.50
2018,12,07,14,17,6.40
2018,12,07,14,18,6.40
2018,12,07,14,19,6.40
2018,12,07,14,20,6.40
2018,12,07,14,21,6.50
2018,12,07,14,22,6.50
2018,12,07,14,23,6.60
2018,12,07,14,24,6.60
2018,12,07,14,25,6.60
2018,12,07,14,26,6.60
2018,12,07,14,27,6.60
2018,12,07,14,28,6.70
2018,12,07,14,29,6.70
2018,12,07,14,30,6.70
2018,12,07,14,31,6.70
2018,12,07,14,32,6.70
2018,12,07,14,33,6.70
2018,12,07,14,34,6.70
2018,12,07,14,35,6.70
2018,12,07,14,36,6.70
2018,12,07,14,37,6.70
2018,12,07,14,38,6.70
2018,12,07,14,39,6.70
2018,12,07,14,40,6.70
2018,12,07,14,41,6.70
2018,12,07,14,42,6.70
2018,12,07,14,43,6.70
2018,12,07,14,44,6.70
2018,12,07,14,45,6.70
2018,12,07,14,46,6.60
2018,12,07,14,47,6.60
2018,12,07,14,48,6.60
2018,12,07,14,49,6.60
2018,12,07,14,50,6.50
2018,12,07,14,51,6.50
2018,12,07,14,52,6.50
2018,12,07,14,53,6.50
2018,12,07,14,54,6.50
2018,12,07,14,55,6.40
2018,12,07,14,56,6.40
2018,12,07,14,57,6.40
2018,12,07,14,58,6.40
2018,12,07,14,59,6.40
2018,12,07,15,00,6.40
2018,12,07,15,01,6.40
2018,12,07,15,02,6.40
2018,12,07,15,03,6.40
2018,12,07,15,04,6.40
2018,12,07,15,05,6.40
2018,12,07,15,06,6.40
2018,12,07,15,07,6.40
2018,12,07,15,08,6.50
2018,12,07,15,09,6.50
2018,12,07,15,10,6.50
2018,12,07,15,11,6.50
2018,12,07,15,12,6.50
2018,12,07,15,13,6.50
2018,12,07,15,14,6.40
2018,12,07,15,15,6.40
2018,12,07,15,16,6.40
2018,12,07,15,17,6.40
2018,12,07,15,18,6.40
2018,12,07,15,19,6.40
2018,12,07,15,20,6.40
2018,12,07,15,21,6.40
2018,12,07,15,22,6.40
2018,12,07,15,23,6.40
2018,12,07,15,24,6.30
2018,12,07,15,25,6.30
2018,12,07,15,26,6.30
2018,12,07,15,27,6.30
2018,12,07,15,28,6.30
2018,12,07,15,29,6.30
2018,12,07,15,30,6.30
2018,12,07,15,31,6.30
2018,12,07,15,32,6.30
2018,12,07,15,33,6.30
2018,12,07,15,34,6.30
2018,12,07,15,35,6.30
2018,12,07,15,36,6.30
2018,12,07,15,37,6.30
2018,12,07,15,38,6.20
2018,12,07,15,39,6.20
2018,12,07,15,40,6.20
2018,12,07,15,41,6.20
2018,12,07,15,42,6.20
2018,12,07,15,43,6.20
2018,12,07,15,44,6.20
2018,12,07,15,45,6.20
2018,12,07,15,46,6.20
2018,12,07,15,47,6.20
2018,12,07,15,48,6.20
2018,12,07,15,49,6.20
2018,12,07,15,50,6.20
2018,12,07,15,51,6.20
2018,12,07,15,52,6.20
2018,12,07,15,53,6.20
2018,12,07,15,54,6.20
2018,12,07,15,55,6.20
2018,12,07,15,56,6.20
2018,12,07,15,57,6.20
2018,12,07,15,58,6.20
2018,12,07,15,59,6.20
2018,12,07,16,00,6.20
2018,12,07,16,01,6.20
2018,12,07,16,02,6.20
2018,12,07,16,03,6.20
2018,12,07,16,04,6.20
2018,12,07,16,05,6.20
2018,12,07,16,06,6.20
2018,12,07,16,07,6.20
2018,12,07,16,08,6.20
2018,12,07,16,09,6.20
2018,12,07,16,10,6.20
2018,12,07,16,11,6.20
2018,12,07,16,12,6.20
2018,12,07,16,13,6.20
2018,12,07,16,14,6.10
2018,12,07,16,15,6.10
2018,12,07,16,16,6.10
2018,12,07,16,17,6.10
2018,12,07,16,18,6.10
2018,12,07,16,19,6.10
2018,12,07,16,20,6.10
2018,12,07,16,21,6.20
2018,12,07,16,22,6.20
2018,12,07,16,23,6.20
2018,12,07,16,24,6.20
2018,12,07,16,25,6.20
2018,12,07,16,26,6.20
2018,12,07,16,27,6.20
2018,12,07,16,28,6.20
2018,12,07,16,29,6.10
2018,12,07,16,30,6.10
2018,12,07,16,31,6.10
2018,12,07,16,32,6.10
2018,12,07,16,33,6.10
2018,12,07,16,34,6.10
2018,12,07,16,35,6.10
2018,12,07,16,36,6.00
2018,12,07,16,37,6.00
2018,12,07,16,38,6.00
2018,12,07,16,39,6.00
2018,12,07,16,40,6.00
2018,12,07,16,41,6.00
2018,12,07,16,42,5.90
2018,12,07,16,43,5.90
2018,12,07,16,44,5.90
2018,12,07,16,45,5.90
2018,12,07,16,46,5.90
2018,12,07,16,47,5.90
2018,12,07,16,48,5.90
2018,12,07,16,49,5.90
2018,12,07,16,50,5.90
2018,12,07,16,51,5.90
2018,12,07,16,52,5.90
2018,12,07,16,53,5.80
2018,12,07,16,54,5.80
2018,12,07,16,55,5.80
2018,12,07,16,56,5.80
2018,12,07,16,57,5.80
2018,12,07,16,58,5.80
2018,12,07,16,59,5.80
2018,12,07,17,00,5.80
2018,12,07,17,01,5.80
2018,12,07,17,02,5.70
2018,12,07,17,03,5.70
2018,12,07,17,04,5.70
2018,12,07,17,05,5.70
2018,12,07,17,06,5.70
2018,12,07,17,07,5.70
2018,12,07,17,08,5.70
2018,12,07,17,09,5.70
2018,12,07,17,10,5.70
2018,12,07,17,11,5.70
2018,12,07,17,12,5.70
2018,12,07,17,13,5.70
2018,12,07,17,14,5.70
2018,12,07,17,15,5.70
2018,12,07,17,16,5.60
2018,12,07,17,17,5.60
2018,12,07,17,18,5.60
2018,12,07,17,19,5.60
2018,12,07,17,20,5.60
2018,12,07,17,21,5.60
2018,12,07,17,22,5.60
2018,12,07,17,23,5.60
2018,12,07,17,24,5.60
2018,12,07,17,25,5.60
2018,12,07,17,26,5.50
2018,12,07,17,27,5.50
2018,12,07,17,28,5.40
2018,12,07,17,29,5.40
2018,12,07,17,30,5.40
2018,12,07,17,31,5.40
2018,12,07,17,32,5.30
2018,12,07,17,33,5.30
2018,12,07,17,34,5.30
2018,12,07,17,35,5.20
2018,12,07,17,36,5.20
2018,12,07,17,37,5.20
2018,12,07,17,38,5.20
2018,12,07,17,39,5.20
2018,12,07,17,40,5.10
2018,12,07,17,41,5.10
2018,12,07,17,42,5.10
2018,12,07,17,43,5.10
2018,12,07,17,44,5.10
2018,12,07,17,45,5.10
2018,12,07,17,46,5.10
2018,12,07,17,47,5.00
2018,12,07,17,48,5.00
2018,12,07,17,49,5.10
2018,12,07,17,50,5.00
2018,12,07,17,51,5.00
2018,12,07,17,52,5.00
2018,12,07,17,53,5.00
2018,12,07,17,54,5.00
2018,12,07,17,55,5.00
2018,12,07,17,56,5.00
2018,12,07,17,57,5.00
2018,12,07,17,58,5.00
2018,12,07,17,59,5.00
2018,12,07,18,00,4.90
2018,12,07,18,01,4.90
2018,12,07,18,02,4.90
2018,12,07,18,03,4.90
2018,12,07,18,04,4.90
2018,12,07,18,05,4.90
2018,12,07,18,06,4.90